Location: Burgwalden
(48.2830°N, 10.7576°E)
Time: 03:15:01
(UTC+00:00)

H-2A R/B - Pass Details

Date: 26 September 2023
Orbit: 731 x 835 km, 98.2° (Epoch: 04 December)

Event Time Altitude Azimuth Distance (km) Brightness Sun altitude
Rises 04:27:20 0° 13° (NNE) 3,385 5.6 -7.7°
Reaches altitude 10° 04:29:41 10° 14° (NNE) 2,454 4.9 -7.3°
Maximum altitude 04:35:10 89° 296° (WNW) 843 2.2 -6.4°
Drops below altitude 10° 04:40:37 10° 196° (SSW) 2,437 4.4 -5.5°
Sets 04:42:57 0° 196° (SSW) 3,360 5.1 -5.1°
